Bedminster, NJ

11:34 AM EST on December 06, 2016 (GMT -0500)
Somerset

Weather History for KSMQ - June, 2013

Change the Weather History Date:

Tuesday, June 18, 2013

  Actual Average Record
Temperature  
Mean Temperature 70 °F -  
Max Temperature 82 °F 80 °F 98 °F (1957)
Min Temperature 59 °F 58 °F 41 °F (1950)
Cooling Degree Days 6    
Growing Degree Days 20 (Base 50)    
Moisture  
Dew Point 63 °F    
Average Humidity 91    
Maximum Humidity 100    
Minimum Humidity 56    
Precipitation  
Precipitation 0.21 in - - ()
Sea Level Pressure  
Sea Level Pressure 29.86 in    
Wind  
Wind Speed 1 mph (NNW)    
Max Wind Speed 7 mph    
Max Gust Speed -    
Visibility 5 miles    
Events Rain    
Averages and records for this station are not official NWS values.
T = Trace of Precipitation, MM = Missing Value Source: NWS Daily Summary

Daily Weather History Graph

Daily Weather History Graph

Search for Another Location

Airport or City:

Trip Planner

Search our weather history database for the weather conditions in past years. The results will help you decide how hot, cold, wet, or windy it might be!

Date:

Astronomy

Jun. 18, 2013 Rise Set
Actual Time 5:27 AM EDT 8:32 PM EDT
Civil Twilight 4:54 AM EDT 9:05 PM EDT
Nautical Twilight 4:11 AM EDT 9:48 PM EDT
Astronomical Twilight 3:21 AM EDT 10:38 PM EDT
Moon 3:13 PM EDT (6/18) 1:35 AM EDT (6/18)
Length of Visible Light 16h 11m
Length of Day
15h 04m
Waxing Gibbous, 70% of the Moon is Illuminated
Jun 18
Waxing Gibbous
Jun 23
Full
Jun 30
Last Quarter
Jul 8
New
Jul 15
First Quarter

Hourly Weather History & Observations

Time (EDT) Temp. Heat Index Dew Point Humidity Pressure Visibility Wind Dir Wind Speed Gust Speed Precip Events Conditions
12:53 AM 63.0 °F - 62.1 °F 97% 29.89 in 6.0 mi Calm Calm - N/A   Clear
1:41 AM 62.6 °F - 62.6 °F 100% 29.88 in 1.5 mi Calm Calm - 0.01 in   Clear
1:50 AM 62.6 °F - 62.6 °F 100% 29.88 in 0.8 mi Calm Calm - 0.01 in   Clear
1:53 AM 63.0 °F - 62.1 °F 97% 29.88 in 1.5 mi Calm Calm - 0.01 in   Clear
1:55 AM 62.6 °F - 62.6 °F 100% 29.88 in 3.0 mi Calm Calm - N/A   Clear
2:53 AM 62.1 °F - 61.0 °F 96% 29.87 in 4.0 mi NW 4.6 mph - N/A   Clear
3:26 AM 62.6 °F - 60.8 °F 94% 29.86 in 2.5 mi Calm Calm - N/A   Clear
3:35 AM 62.6 °F - 60.8 °F 94% 29.86 in 5.0 mi Calm Calm - N/A   Clear
3:53 AM 63.0 °F - 61.0 °F 93% 29.85 in 5.0 mi Calm Calm - N/A   Clear
4:31 AM 60.8 °F - 60.8 °F 100% 29.85 in 1.2 mi Calm Calm - N/A   Partly Cloudy
4:33 AM 60.8 °F - 60.8 °F 100% 29.85 in 0.8 mi Calm Calm - N/A   Mist
4:53 AM 60.1 °F - 60.1 °F 100% 29.86 in 0.8 mi Calm Calm - N/A   Mist
5:03 AM 60.8 °F - 60.8 °F 100% 29.86 in 1.2 mi Calm Calm - N/A   Partly Cloudy
5:25 AM 59.0 °F - 59.0 °F 100% 29.86 in 0.8 mi Calm Calm - N/A   Mist
5:38 AM 60.8 °F - 60.8 °F 100% 29.87 in 1.8 mi Calm Calm - N/A   Partly Cloudy
5:40 AM 60.8 °F - 60.8 °F 100% 29.87 in 3.0 mi Calm Calm - N/A   Partly Cloudy
5:53 AM 60.1 °F - 59.0 °F 96% 29.87 in 3.0 mi Calm Calm - N/A   Partly Cloudy
6:02 AM 60.8 °F - 59.0 °F 94% 29.88 in 1.8 mi Calm Calm - N/A   Clear
6:11 AM 60.8 °F - 59.0 °F 94% 29.88 in 2.5 mi Calm Calm - N/A   Clear
6:23 AM 60.8 °F - 60.8 °F 100% 29.88 in 3.0 mi NW 3.5 mph - N/A   Clear
6:53 AM 64.0 °F - 62.1 °F 93% 29.88 in 5.0 mi Calm Calm - N/A   Clear
7:53 AM 69.1 °F - 64.9 °F 87% 29.88 in 8.0 mi Calm Calm - N/A   Clear
8:53 AM 75.0 °F - 66.0 °F 73% 29.88 in 10.0 mi Calm Calm - N/A   Clear
9:53 AM 77.0 °F - 68.0 °F 74% 29.87 in 10.0 mi Calm Calm - N/A   Clear
10:53 AM 79.0 °F - 68.0 °F 69% 29.86 in 10.0 mi Variable 4.6 mph - N/A   Clear
11:53 AM 82.0 °F 83.8 °F 64.9 °F 56% 29.85 in 10.0 mi Calm Calm - N/A   Clear
12:53 PM 80.1 °F 82.9 °F 69.1 °F 69% 29.82 in 10.0 mi South 4.6 mph - N/A   Partly Cloudy
1:53 PM 75.9 °F - 69.1 °F 79% 29.83 in 10.0 mi SSW 3.5 mph - N/A   Clear
2:53 PM 77.0 °F - 69.1 °F 76% 29.80 in 10.0 mi Variable 5.8 mph - 0.00 in   Partly Cloudy
3:53 PM 73.9 °F - 68.0 °F 82% 29.82 in 10.0 mi Calm Calm - 0.00 in Rain Light Rain
4:53 PM 70.0 °F - 68.0 °F 93% 29.82 in 6.0 mi Calm Calm - 0.02 in Rain Light Rain
5:53 PM 68.0 °F - 66.9 °F 96% 29.83 in 4.0 mi Calm Calm - 0.06 in Rain Light Rain
6:20 PM 68.0 °F - 66.2 °F 94% 29.85 in 4.0 mi ENE 6.9 mph - 0.03 in Rain Light Rain
6:29 PM 66.2 °F - 66.2 °F 100% 29.84 in 4.0 mi Calm Calm - 0.05 in Rain Light Rain
6:53 PM 66.9 °F - 64.9 °F 93% 29.83 in 4.0 mi Calm Calm - 0.08 in Rain Light Rain
7:53 PM 66.0 °F - 64.0 °F 93% 29.83 in 8.0 mi Calm Calm - 0.02 in Rain Light Rain
8:53 PM 64.9 °F - 63.0 °F 93% 29.84 in 10.0 mi NNW 6.9 mph - 0.02 in   Partly Cloudy
9:53 PM 64.0 °F - 63.0 °F 96% 29.86 in 10.0 mi Calm Calm - N/A   Clear
10:53 PM 64.0 °F - 62.1 °F 93% 29.86 in 8.0 mi NNW 3.5 mph - N/A   Partly Cloudy
11:29 PM 64.4 °F - 62.6 °F 94% 29.88 in 10.0 mi NNW 4.6 mph - N/A   Mostly Cloudy
11:53 PM 64.0 °F - 62.1 °F 93% 29.88 in 10.0 mi North 4.6 mph - N/A   Mostly Cloudy